| time (UTC) | temp F | wind direction | speed knots | gust knots | rain 1hr in | rain 24hr in | rain mn in | humidity % | barometer mb |
| 20260902092920 | 81 | 78 | 0.0 | 0.0 | 0.00 | 0.00 | 0.00 | 74 | 1014.1 |
| 20260902092416 | 81 | 75 | 0.0 | 0.0 | 0.00 | 0.00 | 0.00 | 74 | 1013.9 |
| 20260902091911 | 81 | 73 | 0.0 | 0.0 | 0.00 | 0.00 | 0.00 | 74 | 1014.0 |
| 20260902091406 | 81 | 74 | 0.0 | 0.0 | 0.00 | 0.00 | 0.00 | 74 | 1013.9 |
| 20260902090903 | 81 | 71 | 0.0 | 0.0 | 0.00 | 0.00 | 0.00 | 74 | 1014.2 |
| 20260902090402 | 81 | 71 | 0.0 | 0.0 | 0.00 | 0.00 | 0.00 | 73 | 1014.1 |
| 20260902085901 | 81 | 71 | 0.0 | 0.0 | 0.00 | 0.00 | 0.00 | 73 | 1014.0 |
| 20260902085356 | 82 | 74 | 0.0 | 0.0 | 0.00 | 0.00 | 0.00 | 72 | 1013.9 |
| 20260902084852 | 82 | 73 | 0.0 | 0.0 | 0.00 | 0.00 | 0.00 | 72 | 1014.0 |
| 20260902084348 | 82 | 76 | 0.0 | 0.0 | 0.00 | 0.00 | 0.00 | 72 | 1014.0 |
| 20260902083843 | 82 | 72 | 0.0 | 0.0 | 0.00 | 0.00 | 0.00 | 71 | 1014.0 |
| 20260902083338 | 82 | 75 | 0.0 | 0.0 | 0.00 | 0.00 | 0.00 | 71 | 1013.9 |
| 20260902082833 | 82 | 73 | 0.0 | 0.0 | 0.00 | 0.00 | 0.00 | 71 | 1013.9 |
| 20260902082329 | 83 | 74 | 0.0 | 0.0 | 0.00 | 0.00 | 0.00 | 70 | 1014.0 |
| 20260902081825 | 83 | 74 | 0.0 | 0.0 | 0.00 | 0.00 | 0.00 | 70 | 1014.0 |
| 20260902081320 | 83 | 95 | 0.0 | 0.0 | 0.00 | 0.00 | 0.00 | 70 | 1014.0 |
| 20260902080814 | 83 | 76 | 0.0 | 0.9 | 0.00 | 0.00 | 0.00 | 70 | 1014.0 |
| 20260902080312 | 83 | 72 | 0.0 | 0.0 | 0.00 | 0.00 | 0.00 | 69 | 1014.1 |
| 20260902075811 | 83 | 77 | 0.0 | 0.9 | 0.00 | 0.00 | 0.00 | 69 | 1013.9 |
| 20260902075307 | 83 | 80 | 1.7 | 1.7 | 0.00 | 0.00 | 0.00 | 69 | 1013.9 |
| 20260902074802 | 84 | 77 | 0.0 | 1.7 | 0.00 | 0.00 | 0.00 | 68 | 1014.0 |
| 20260902074258 | 84 | 84 | 0.0 | 0.9 | 0.00 | 0.00 | 0.00 | 68 | 1014.1 |
| 20260902073753 | 84 | 77 | 0.0 | 0.9 | 0.00 | 0.00 | 0.00 | 68 | 1014.0 |
| 20260902073249 | 84 | 84 | 0.0 | 0.0 | 0.00 | 0.00 | 0.00 | 68 | 1014.1 |
| 20260902072744 | 84 | 79 | 0.0 | 0.9 | 0.00 | 0.00 | 0.00 | 68 | 1014.1 |
| 20260902072240 | 84 | 74 | 0.0 | 0.0 | 0.00 | 0.00 | 0.00 | 68 | 1014.1 |
| 20260902071736 | 84 | 77 | 0.0 | 0.0 | 0.00 | 0.00 | 0.00 | 68 | 1014.0 |
| 20260902071231 | 84 | 118 | 0.9 | 0.9 | 0.00 | 0.00 | 0.00 | 68 | 1014.1 |
| 20260902070728 | 84 | 76 | 0.0 | 0.0 | 0.00 | 0.00 | 0.00 | 68 | 1013.9 |
| 20260902070227 | 84 | 75 | 0.0 | 0.0 | 0.00 | 0.00 | 0.00 | 68 | 1014.0 |
| 20260902065726 | 84 | 77 | 0.0 | 0.9 | 0.00 | 0.00 | 0.00 | 68 | 1014.2 |
| 20260902065221 | 84 | 77 | 0.0 | 1.7 | 0.00 | 0.00 | 0.00 | 68 | 1014.0 |
| 20260902064717 | 84 | 82 | 0.0 | 0.9 | 0.00 | 0.00 | 0.00 | 68 | 1014.1 |
| 20260902064212 | 85 | 84 | 0.9 | 0.9 | 0.00 | 0.00 | 0.00 | 68 | 1013.9 |
| 20260902063708 | 85 | 81 | 0.9 | 1.7 | 0.00 | 0.00 | 0.00 | 68 | 1014.0 |
| 20260902063207 | 85 | 81 | 0.0 | 0.9 | 0.00 | 0.00 | 0.00 | 67 | 1013.8 |
| 20260902062702 | 85 | 78 | 0.0 | 1.7 | 0.00 | 0.00 | 0.00 | 67 | 1013.9 |
| 20260902062157 | 85 | 76 | 0.0 | 0.0 | 0.00 | 0.00 | 0.00 | 67 | 1013.9 |
| 20260902061655 | 85 | 89 | 0.0 | 0.0 | 0.00 | 0.00 | 0.00 | 67 | 1013.8 |
| 20260902061151 | 85 | 79 | 1.7 | 2.6 | 0.00 | 0.00 | 0.00 | 67 | 1013.9 |
| 20260902060648 | 86 | 81 | 0.0 | 0.9 | 0.00 | 0.00 | 0.00 | 66 | 1013.9 |
| 20260902060144 | 86 | 102 | 0.0 | 1.7 | 0.00 | 0.00 | 0.00 | 66 | 1013.8 |
| 20260902055639 | 86 | 105 | 0.9 | 0.9 | 0.00 | 0.00 | 0.00 | 66 | 1013.9 |
| 20260902055135 | 86 | 110 | 0.9 | 1.7 | 0.00 | 0.00 | 0.00 | 65 | 1014.1 |
| 20260902054630 | 86 | 90 | 0.9 | 0.9 | 0.00 | 0.00 | 0.00 | 65 | 1014.0 |
| 20260902054126 | 86 | 85 | 0.0 | 0.9 | 0.00 | 0.00 | 0.00 | 64 | 1013.8 |
| 20260902053620 | 87 | 109 | 0.0 | 1.7 | 0.00 | 0.00 | 0.00 | 64 | 1014.0 |
| 20260902053115 | 87 | 77 | 0.0 | 0.9 | 0.00 | 0.00 | 0.00 | 64 | 1013.9 |
| 20260902052609 | 87 | 87 | 0.9 | 1.7 | 0.00 | 0.00 | 0.00 | 63 | 1013.9 |
| 20260902052105 | 87 | 74 | 0.0 | 0.9 | 0.00 | 0.00 | 0.00 | 63 | 1013.9 |
| 20260902051604 | 87 | 124 | 1.7 | 2.6 | 0.00 | 0.00 | 0.00 | 63 | 1014.1 |
| 20260902051103 | 87 | 95 | 0.9 | 4.3 | 0.00 | 0.00 | 0.00 | 63 | 1013.7 |
| 20260902050558 | 87 | 75 | 0.0 | 0.9 | 0.00 | 0.00 | 0.00 | 62 | 1013.6 |
| 20260902050053 | 87 | 104 | 0.9 | 4.3 | 0.00 | 0.00 | 0.00 | 61 | 1013.5 |
| 20260902045548 | 88 | 83 | 0.9 | 0.9 | 0.00 | 0.00 | 0.00 | 61 | 1013.6 |
| 20260902045044 | 88 | 92 | 0.0 | 0.9 | 0.00 | 0.00 | 0.00 | 61 | 1013.9 |
| 20260902044539 | 88 | 110 | 0.9 | 1.7 | 0.00 | 0.00 | 0.00 | 61 | 1013.9 |
| 20260902044035 | 88 | 74 | 0.0 | 0.0 | 0.00 | 0.00 | 0.00 | 60 | 1013.6 |
| 20260902043530 | 88 | 111 | 0.9 | 4.3 | 0.00 | 0.00 | 0.00 | 60 | 1013.7 |
| 20260902043025 | 89 | 86 | 0.9 | 4.3 | 0.00 | 0.00 | 0.00 | 58 | 1013.6 |
| 20260902042524 | 88 | 52 | 1.7 | 5.2 | 0.00 | 0.00 | 0.00 | 58 | 1013.7 |
| 20260902042019 | 89 | 76 | 0.0 | 5.2 | 0.00 | 0.00 | 0.00 | 58 | 1013.4 |
| 20260902041514 | 89 | 71 | 0.0 | 2.6 | 0.00 | 0.00 | 0.00 | 58 | 1013.8 |
| 20260902041008 | 89 | 77 | 0.9 | 4.3 | 0.00 | 0.00 | 0.00 | 57 | 1013.7 |
| 20260902040503 | 89 | 78 | 0.9 | 2.6 | 0.00 | 0.00 | 0.00 | 57 | 1013.4 |
| 20260902040002 | 89 | 116 | 2.6 | 5.2 | 0.00 | 0.00 | 0.00 | 58 | 1013.2 |
| 20260902035456 | 89 | 71 | 0.9 | 1.7 | 0.00 | 0.00 | 0.00 | 59 | 1013.4 |
| 20260902034950 | 89 | 78 | 0.0 | 1.7 | 0.00 | 0.00 | 0.00 | 58 | 1013.4 |
| 20260902034445 | 89 | 75 | 0.0 | 0.0 | 0.00 | 0.00 | 0.00 | 58 | 1013.2 |
| 20260902033944 | 89 | 75 | 0.0 | 0.0 | 0.00 | 0.00 | 0.00 | 57 | 1013.4 |
| 20260902033438 | 89 | 85 | 0.0 | 0.0 | 0.00 | 0.00 | 0.00 | 57 | 1013.1 |
| 20260902032937 | 89 | 72 | 0.0 | 0.0 | 0.00 | 0.00 | 0.00 | 56 | 1013.1 |
| 20260902032432 | 89 | 75 | 0.0 | 1.7 | 0.00 | 0.00 | 0.00 | 56 | 1013.4 |
| 20260902031927 | 89 | 74 | 0.0 | 0.0 | 0.00 | 0.00 | 0.00 | 56 | 1013.2 |
| 20260902031422 | 90 | 70 | 0.0 | 0.0 | 0.00 | 0.00 | 0.00 | 56 | 1013.1 |
| 20260902030918 | 89 | 79 | 0.0 | 0.9 | 0.00 | 0.00 | 0.00 | 56 | 1013.0 |
| 20260902030413 | 90 | 78 | 0.0 | 0.0 | 0.00 | 0.00 | 0.00 | 56 | 1013.1 |
| 20260902025911 | 90 | 76 | 0.0 | 0.0 | 0.00 | 0.00 | 0.00 | 56 | 1012.8 |
| 20260902025407 | 90 | 73 | 0.0 | 0.9 | 0.00 | 0.00 | 0.00 | 56 | 1013.0 |
| 20260902024902 | 90 | 70 | 0.0 | 0.9 | 0.00 | 0.00 | 0.00 | 55 | 1013.1 |
| 20260902024357 | 90 | 76 | 0.0 | 0.9 | 0.00 | 0.00 | 0.00 | 55 | 1012.6 |
| 20260902023853 | 90 | 76 | 0.0 | 0.9 | 0.00 | 0.00 | 0.00 | 55 | 1012.7 |
| 20260902023348 | 90 | 76 | 0.0 | 0.0 | 0.00 | 0.00 | 0.00 | 55 | 1012.7 |
| 20260902022847 | 91 | 72 | 0.0 | 0.0 | 0.00 | 0.00 | 0.00 | 55 | 1012.6 |
| 20260902022342 | 91 | 68 | 0.0 | 0.9 | 0.00 | 0.00 | 0.00 | 55 | 1012.4 |
| 20260902021838 | 91 | 71 | 0.0 | 0.9 | 0.00 | 0.00 | 0.00 | 54 | 1012.3 |
| 20260902021333 | 91 | 75 | 0.0 | 0.0 | 0.00 | 0.00 | 0.00 | 53 | 1012.3 |
| 20260902020828 | 92 | 75 | 0.0 | 2.6 | 0.00 | 0.00 | 0.00 | 52 | 1012.2 |
| 20260902020325 | 92 | 54 | 0.9 | 4.3 | 0.00 | 0.00 | 0.00 | 52 | 1012.2 |
| 20260902015820 | 92 | 47 | 0.0 | 0.9 | 0.00 | 0.00 | 0.00 | 50 | 1012.3 |
| 20260902015316 | 92 | 87 | 0.0 | 0.9 | 0.00 | 0.00 | 0.00 | 49 | 1012.1 |
| 20260902014811 | 92 | 70 | 0.0 | 0.9 | 0.00 | 0.00 | 0.00 | 49 | 1011.8 |
| 20260902014308 | 92 | 76 | 0.0 | 0.0 | 0.00 | 0.00 | 0.00 | 49 | 1011.8 |
| 20260902013806 | 92 | 76 | 0.9 | 0.9 | 0.00 | 0.00 | 0.00 | 50 | 1011.6 |
| 20260902013302 | 92 | 74 | 0.0 | 0.0 | 0.00 | 0.00 | 0.00 | 49 | 1011.4 |
| 20260902012757 | 92 | 77 | 0.0 | 0.0 | 0.00 | 0.00 | 0.00 | 49 | 1011.4 |
| 20260902012253 | 92 | 76 | 0.0 | 0.9 | 0.00 | 0.00 | 0.00 | 49 | 1011.4 |
| 20260902011749 | 92 | 77 | 0.0 | 0.0 | 0.00 | 0.00 | 0.00 | 49 | 1011.6 |
| 20260902011248 | 93 | 74 | 0.0 | 0.0 | 0.00 | 0.00 | 0.00 | 48 | 1011.6 |
| 20260902010741 | 93 | 75 | 0.0 | 0.0 | 0.00 | 0.00 | 0.00 | 48 | 1011.4 |
| 20260902010237 | 93 | 74 | 0.0 | 0.0 | 0.00 | 0.00 | 0.00 | 48 | 1011.4 |
| 20260902005736 | 94 | 74 | 0.0 | 0.0 | 0.00 | 0.00 | 0.00 | 47 | 1011.3 |
| 20260902005231 | 94 | 76 | 0.0 | 0.9 | 0.00 | 0.00 | 0.00 | 46 | 1011.2 |
| 20260902004725 | 94 | 72 | 0.0 | 0.0 | 0.00 | 0.00 | 0.00 | 46 | 1011.2 |
| 20260902004220 | 94 | 81 | 0.0 | 0.9 | 0.00 | 0.00 | 0.00 | 45 | 1011.4 |
| 20260902003715 | 95 | 83 | 0.0 | 1.7 | 0.00 | 0.00 | 0.00 | 45 | 1011.5 |
| 20260902003211 | 95 | 84 | 0.0 | 0.0 | 0.00 | 0.00 | 0.00 | 45 | 1011.6 |
| 20260902002706 | 95 | 75 | 0.0 | 0.9 | 0.00 | 0.00 | 0.00 | 44 | 1011.6 |
| 20260902002200 | 95 | 76 | 0.0 | 0.9 | 0.00 | 0.00 | 0.00 | 44 | 1011.5 |
| 20260902001655 | 96 | 56 | 1.7 | 2.6 | 0.00 | 0.00 | 0.00 | 43 | 1011.7 |
| 20260902001150 | 96 | 77 | 0.0 | 0.9 | 0.00 | 0.00 | 0.00 | 43 | 1011.6 |
| 20260902000645 | 96 | 74 | 0.0 | 4.3 | 0.00 | 0.00 | 0.00 | 43 | 1011.8 |
| 20260902000140 | 96 | 68 | 0.9 | 1.7 | 0.00 | 0.00 | 0.00 | 43 | 1011.8 |
| 20260901235640 | 96 | 72 | 0.0 | 4.3 | 0.00 | 0.00 | 0.00 | 44 | 1011.8 |
| 20260901235135 | 96 | 80 | 0.9 | 0.9 | 0.00 | 0.00 | 0.00 | 44 | 1011.7 |
| 20260901234634 | 96 | 71 | 0.0 | 1.7 | 0.00 | 0.00 | 0.00 | 43 | 1011.7 |
| 20260901234130 | 96 | 74 | 0.0 | 1.7 | 0.00 | 0.00 | 0.00 | 43 | 1011.7 |
| 20260901233624 | 96 | 73 | 0.9 | 1.7 | 0.00 | 0.00 | 0.00 | 43 | 1011.8 |
| 20260901233121 | 97 | 92 | 0.0 | 0.9 | 0.00 | 0.00 | 0.00 | 42 | 1011.8 |
| 20260901232620 | 97 | 105 | 0.9 | 2.6 | 0.00 | 0.00 | 0.00 | 43 | 1011.7 |
| 20260901232115 | 97 | 86 | 0.9 | 1.7 | 0.00 | 0.00 | 0.00 | 42 | 1012.0 |
| 20260901231613 | 98 | 121 | 0.9 | 0.9 | 0.00 | 0.00 | 0.00 | 42 | 1011.9 |
| 20260901231108 | 98 | 127 | 1.7 | 2.6 | 0.00 | 0.00 | 0.00 | 41 | 1011.9 |
| 20260901230604 | 99 | 127 | 0.9 | 6.1 | 0.00 | 0.00 | 0.00 | 40 | 1011.8 |
| 20260901230103 | 100 | 80 | 0.9 | 4.3 | 0.00 | 0.00 | 0.00 | 40 | 1011.9 |
| 20260901225559 | 100 | 96 | 0.0 | 2.6 | 0.00 | 0.00 | 0.00 | 40 | 1011.9 |
| 20260901225058 | 100 | 36 | 1.7 | 2.6 | 0.00 | 0.00 | 0.00 | 39 | 1011.8 |
| 20260901224554 | 100 | 70 | 2.6 | 2.6 | 0.00 | 0.00 | 0.00 | 39 | 1012.0 |
| 20260901224050 | 101 | 96 | 0.0 | 0.9 | 0.00 | 0.00 | 0.00 | 38 | 1011.9 |
| 20260901223546 | 99 | 95 | 0.9 | 1.7 | 0.00 | 0.00 | 0.00 | 39 | 1011.7 |
| 20260901223041 | 101 | 94 | 0.0 | 0.9 | 0.00 | 0.00 | 0.00 | 38 | 1011.7 |
| 20260901222537 | 100 | 61 | 2.6 | 4.3 | 0.00 | 0.00 | 0.00 | 38 | 1011.8 |
| 20260901222033 | 100 | 118 | 1.7 | 5.2 | 0.00 | 0.00 | 0.00 | 39 | 1011.9 |
| 20260901221529 | 101 | 96 | 1.7 | 2.6 | 0.00 | 0.00 | 0.00 | 38 | 1011.8 |
| 20260901221024 | 101 | 75 | 0.0 | 1.7 | 0.00 | 0.00 | 0.00 | 38 | 1012.0 |
| 20260901220523 | 101 | 74 | 0.9 | 1.7 | 0.00 | 0.00 | 0.00 | 38 | 1012.0 |
| 20260901220022 | 101 | 62 | 0.9 | 2.6 | 0.00 | 0.00 | 0.00 | 38 | 1012.0 |
| 20260901215521 | 101 | 64 | 0.0 | 0.0 | 0.00 | 0.00 | 0.00 | 38 | 1011.8 |
| 20260901215021 | 101 | 80 | 0.9 | 2.6 | 0.00 | 0.00 | 0.00 | 38 | 1012.1 |
| 20260901214519 | 101 | 84 | 0.0 | 1.7 | 0.00 | 0.00 | 0.00 | 39 | 1012.1 |
| 20260901214014 | 101 | 54 | 2.6 | 4.3 | 0.00 | 0.00 | 0.00 | 38 | 1012.1 |
| 20260901213508 | 100 | 68 | 0.9 | 4.3 | 0.00 | 0.00 | 0.00 | 39 | 1012.3 |
| 20260901213002 | 100 | 64 | 1.7 | 1.7 | 0.00 | 0.00 | 0.00 | 39 | 1012.4 |
| 20260901212457 | 100 | 105 | 0.9 | 4.3 | 0.00 | 0.00 | 0.00 | 40 | 1012.3 |
| 20260901211954 | 100 | 106 | 0.9 | 2.6 | 0.00 | 0.00 | 0.00 | 40 | 1012.5 |
| 20260901211449 | 101 | 56 | 2.6 | 2.6 | 0.00 | 0.00 | 0.00 | 39 | 1012.5 |
| 20260901210944 | 100 | 75 | 0.9 | 1.7 | 0.00 | 0.00 | 0.00 | 40 | 1012.5 |
| 20260901210440 | 98 | 106 | 1.7 | 2.6 | 0.00 | 0.00 | 0.00 | 42 | 1012.5 |
| 20260901205936 | 100 | 78 | 1.7 | 5.2 | 0.00 | 0.00 | 0.00 | 42 | 1012.5 |
| 20260901205430 | 100 | 84 | 0.9 | 5.2 | 0.00 | 0.00 | 0.00 | 40 | 1012.8 |
| 20260901204925 | 99 | 9 | 0.0 | 1.7 | 0.00 | 0.00 | 0.00 | 42 | 1012.7 |
| 20260901204422 | 100 | 132 | 2.6 | 5.2 | 0.00 | 0.00 | 0.00 | 41 | 1012.7 |
| 20260901203922 | 100 | 89 | 0.0 | 4.3 | 0.00 | 0.00 | 0.00 | 41 | 1013.0 |
| 20260901203416 | 100 | 64 | 2.6 | 4.3 | 0.00 | 0.00 | 0.00 | 41 | 1012.8 |
| 20260901202912 | 99 | 104 | 0.0 | 2.6 | 0.00 | 0.00 | 0.00 | 41 | 1013.1 |
| 20260901202406 | 99 | 91 | 3.5 | 4.3 | 0.00 | 0.00 | 0.00 | 41 | 1013.0 |
| 20260901201902 | 99 | 84 | 2.6 | 5.2 | 0.00 | 0.00 | 0.00 | 42 | 1013.0 |
| 20260901201402 | 98 | 60 | 2.6 | 4.3 | 0.00 | 0.00 | 0.00 | 42 | 1013.3 |
| 20260901200856 | 99 | 81 | 1.7 | 4.3 | 0.00 | 0.00 | 0.00 | 42 | 1013.3 |
| 20260901200351 | 100 | 79 | 1.7 | 2.6 | 0.00 | 0.00 | 0.00 | 41 | 1013.4 |
| 20260901195850 | 100 | 110 | 0.9 | 1.7 | 0.00 | 0.00 | 0.00 | 41 | 1013.6 |
| 20260901195343 | 100 | 62 | 0.0 | 4.3 | 0.00 | 0.00 | 0.00 | 41 | 1013.3 |
| 20260901194838 | 99 | 79 | 0.9 | 2.6 | 0.00 | 0.00 | 0.00 | 42 | 1013.5 |
| 20260901194333 | 100 | 65 | 0.0 | 0.0 | 0.00 | 0.00 | 0.00 | 40 | 1013.5 |
| 20260901193830 | 99 | 68 | 0.0 | 0.9 | 0.00 | 0.00 | 0.00 | 42 | 1013.6 |
| 20260901193328 | 99 | 115 | 0.9 | 5.2 | 0.00 | 0.00 | 0.00 | 43 | 1013.7 |
| 20260901192822 | 99 | 102 | 1.7 | 4.3 | 0.00 | 0.00 | 0.00 | 42 | 1013.7 |
| 20260901192318 | 99 | 77 | 0.9 | 1.7 | 0.00 | 0.00 | 0.00 | 42 | 1013.8 |
| 20260901191815 | 99 | 90 | 1.7 | 6.1 | 0.00 | 0.00 | 0.00 | 42 | 1013.9 |
| 20260901191310 | 100 | 73 | 0.0 | 2.6 | 0.00 | 0.00 | 0.00 | 42 | 1013.8 |
| 20260901190806 | 98 | 55 | 0.9 | 1.7 | 0.00 | 0.00 | 0.00 | 43 | 1014.2 |
| 20260901190306 | 98 | 34 | 2.6 | 2.6 | 0.00 | 0.00 | 0.00 | 42 | 1013.9 |
| 20260901185804 | 99 | 32 | 3.5 | 5.2 | 0.00 | 0.00 | 0.00 | 42 | 1014.2 |
| 20260901185305 | 98 | 69 | 0.9 | 2.6 | 0.00 | 0.00 | 0.00 | 43 | 1014.3 |
| 20260901184758 | 98 | 113 | 2.6 | 5.2 | 0.00 | 0.00 | 0.00 | 42 | 1014.4 |
| 20260901184254 | 97 | 225 | 0.9 | 1.7 | 0.00 | 0.00 | 0.00 | 45 | 1014.3 |
| 20260901183750 | 97 | 80 | 0.9 | 4.3 | 0.00 | 0.00 | 0.00 | 45 | 1014.8 |
| 20260901183249 | 97 | 63 | 0.9 | 2.6 | 0.00 | 0.00 | 0.00 | 44 | 1014.7 |
| 20260901182745 | 96 | 114 | 1.7 | 4.3 | 0.00 | 0.00 | 0.00 | 46 | 1014.7 |
| 20260901182244 | 96 | 80 | 0.0 | 2.6 | 0.00 | 0.00 | 0.00 | 47 | 1014.8 |
| 20260901181739 | 97 | 63 | 0.9 | 4.3 | 0.00 | 0.00 | 0.00 | 47 | 1014.8 |
| 20260901181234 | 98 | 358 | 1.7 | 4.3 | 0.00 | 0.00 | 0.00 | 46 | 1014.9 |
| 20260901180733 | 97 | 84 | 1.7 | 4.3 | 0.00 | 0.00 | 0.00 | 47 | 1014.9 |
| 20260901180232 | 96 | 111 | 0.9 | 1.7 | 0.00 | 0.00 | 0.00 | 48 | 1015.0 |
| 20260901175731 | 95 | 67 | 0.0 | 0.9 | 0.00 | 0.00 | 0.00 | 50 | 1015.1 |
| 20260901175226 | 95 | 54 | 3.5 | 4.3 | 0.00 | 0.00 | 0.00 | 50 | 1015.4 |
| 20260901174721 | 94 | 80 | 0.0 | 0.9 | 0.00 | 0.00 | 0.00 | 50 | 1015.4 |
| 20260901174217 | 95 | 70 | 0.0 | 0.9 | 0.00 | 0.00 | 0.00 | 49 | 1015.5 |
| 20260901173713 | 96 | 75 | 0.0 | 0.9 | 0.00 | 0.00 | 0.00 | 48 | 1015.4 |
| 20260901173208 | 98 | 78 | 0.0 | 2.6 | 0.00 | 0.00 | 0.00 | 46 | 1015.4 |
| 20260901172704 | 98 | 76 | 0.0 | 0.9 | 0.00 | 0.00 | 0.00 | 46 | 1015.7 |
| 20260901172203 | 98 | 115 | 1.7 | 4.3 | 0.00 | 0.00 | 0.00 | 45 | 1015.6 |
| 20260901171701 | 98 | 76 | 0.0 | 0.9 | 0.00 | 0.00 | 0.00 | 46 | 1015.7 |
| 20260901171155 | 97 | 77 | 0.0 | 1.7 | 0.00 | 0.00 | 0.00 | 47 | 1015.7 |
| 20260901170654 | 96 | 150 | 0.9 | 1.7 | 0.00 | 0.00 | 0.00 | 48 | 1016.0 |
| 20260901170149 | 96 | 45 | 0.9 | 2.6 | 0.00 | 0.00 | 0.00 | 49 | 1015.8 |
| 20260901165648 | 96 | 51 | 0.9 | 0.9 | 0.00 | 0.00 | 0.00 | 48 | 1016.0 |
| 20260901165143 | 95 | 77 | 0.0 | 1.7 | 0.00 | 0.00 | 0.00 | 49 | 1016.2 |
| 20260901164639 | 95 | 81 | 0.0 | 0.9 | 0.00 | 0.00 | 0.00 | 49 | 1016.0 |
| 20260901164134 | 96 | 99 | 0.0 | 1.7 | 0.00 | 0.00 | 0.00 | 48 | 1016.3 |
| 20260901163630 | 95 | 93 | 1.7 | 2.6 | 0.00 | 0.00 | 0.00 | 49 | 1016.1 |
| 20260901163128 | 95 | 35 | 2.6 | 2.6 | 0.00 | 0.00 | 0.00 | 49 | 1016.0 |
| 20260901162624 | 95 | 100 | 0.9 | 0.9 | 0.00 | 0.00 | 0.00 | 49 | 1016.3 |
| 20260901162123 | 95 | 155 | 0.9 | 1.7 | 0.00 | 0.00 | 0.00 | 50 | 1015.8 |
| 20260901161623 | 95 | 99 | 0.9 | 0.9 | 0.00 | 0.00 | 0.00 | 49 | 1016.0 |
| 20260901161122 | 95 | 119 | 0.0 | 0.9 | 0.00 | 0.00 | 0.00 | 50 | 1016.2 |
| 20260901160619 | 95 | 83 | 0.0 | 0.9 | 0.00 | 0.00 | 0.00 | 50 | 1016.2 |
| 20260901160114 | 95 | 85 | 0.0 | 1.7 | 0.00 | 0.00 | 0.00 | 50 | 1016.0 |
| 20260901155613 | 95 | 74 | 0.0 | 2.6 | 0.00 | 0.00 | 0.00 | 50 | 1016.2 |
| 20260901155109 | 94 | 124 | 0.9 | 0.9 | 0.00 | 0.00 | 0.00 | 50 | 1016.3 |
| 20260901154608 | 94 | 86 | 0.0 | 0.9 | 0.00 | 0.00 | 0.00 | 52 | 1016.1 |
| 20260901154103 | 94 | 70 | 0.0 | 0.9 | 0.00 | 0.00 | 0.00 | 51 | 1016.0 |
| 20260901153558 | 94 | 89 | 0.0 | 0.9 | 0.00 | 0.00 | 0.00 | 52 | 1016.0 |
| 20260901153051 | 94 | 116 | 0.0 | 0.9 | 0.00 | 0.00 | 0.00 | 51 | 1016.1 |
| 20260901152547 | 93 | 70 | 0.0 | 0.9 | 0.00 | 0.00 | 0.00 | 54 | 1016.0 |
| 20260901152045 | 93 | 108 | 0.9 | 1.7 | 0.00 | 0.00 | 0.00 | 54 | 1016.2 |
| 20260901151541 | 93 | 81 | 0.0 | 0.0 | 0.00 | 0.00 | 0.00 | 53 | 1016.0 |
| 20260901151035 | 93 | 83 | 0.0 | 1.7 | 0.00 | 0.00 | 0.00 | 54 | 1016.0 |
| 20260901150533 | 92 | 72 | 0.0 | 1.7 | 0.00 | 0.00 | 0.00 | 55 | 1016.1 |
| 20260901150032 | 91 | 89 | 0.9 | 2.6 | 0.00 | 0.00 | 0.00 | 57 | 1016.0 |
| 20260901145530 | 92 | 172 | 0.9 | 0.9 | 0.00 | 0.00 | 0.00 | 55 | 1016.3 |
| 20260901145025 | 92 | 81 | 0.0 | 0.9 | 0.00 | 0.00 | 0.00 | 56 | 1016.1 |
| 20260901144521 | 92 | 76 | 0.0 | 2.6 | 0.00 | 0.00 | 0.00 | 57 | 1015.9 |
| 20260901144015 | 91 | 74 | 0.0 | 1.7 | 0.00 | 0.00 | 0.00 | 58 | 1016.1 |
| 20260901143511 | 91 | 88 | 0.0 | 1.7 | 0.00 | 0.00 | 0.00 | 57 | 1016.1 |
| 20260901143007 | 90 | 74 | 0.0 | 0.0 | 0.00 | 0.00 | 0.00 | 59 | 1016.2 |
| 20260901142502 | 89 | 74 | 0.0 | 0.9 | 0.00 | 0.00 | 0.00 | 60 | 1016.2 |
| 20260901141956 | 89 | 79 | 0.0 | 0.9 | 0.00 | 0.00 | 0.00 | 61 | 1016.3 |
| 20260901141450 | 88 | 188 | 1.7 | 1.7 | 0.00 | 0.00 | 0.00 | 61 | 1016.3 |
| 20260901140946 | 88 | 99 | 0.9 | 0.9 | 0.00 | 0.00 | 0.00 | 62 | 1016.3 |
| 20260901140443 | 87 | 95 | 0.9 | 0.9 | 0.00 | 0.00 | 0.00 | 64 | 1016.4 |
| 20260901135938 | 87 | 73 | 0.0 | 1.7 | 0.00 | 0.00 | 0.00 | 64 | 1016.4 |
| 20260901135433 | 87 | 80 | 0.0 | 1.7 | 0.00 | 0.00 | 0.00 | 64 | 1016.4 |
| 20260901134929 | 86 | 66 | 1.7 | 1.7 | 0.00 | 0.00 | 0.00 | 64 | 1016.0 |
| 20260901134425 | 85 | 73 | 0.0 | 0.9 | 0.00 | 0.00 | 0.00 | 66 | 1016.4 |
| 20260901133924 | 84 | 64 | 0.0 | 0.9 | 0.00 | 0.00 | 0.00 | 67 | 1016.3 |
| 20260901133423 | 83 | 67 | 1.7 | 1.7 | 0.00 | 0.00 | 0.00 | 69 | 1016.2 |
| 20260901132922 | 82 | 88 | 0.9 | 1.7 | 0.00 | 0.00 | 0.00 | 71 | 1016.1 |
| 20260901132417 | 82 | 72 | 0.0 | 0.0 | 0.00 | 0.00 | 0.00 | 71 | 1016.2 |
| 20260901131916 | 81 | 82 | 0.9 | 1.7 | 0.00 | 0.00 | 0.00 | 72 | 1016.1 |
| 20260901131416 | 81 | 73 | 0.0 | 0.9 | 0.00 | 0.00 | 0.00 | 72 | 1016.2 |
| 20260901130912 | 81 | 69 | 0.0 | 0.9 | 0.00 | 0.00 | 0.00 | 72 | 1016.2 |
| 20260901130406 | 80 | 72 | 0.0 | 0.9 | 0.00 | 0.00 | 0.00 | 73 | 1016.1 |
| 20260901125904 | 80 | 78 | 0.0 | 0.9 | 0.00 | 0.00 | 0.00 | 72 | 1015.9 |
| 20260901125403 | 80 | 84 | 0.0 | 0.9 | 0.00 | 0.00 | 0.00 | 72 | 1015.9 |
| 20260901124858 | 80 | 76 | 0.0 | 0.9 | 0.00 | 0.00 | 0.00 | 73 | 1015.7 |
| 20260901124354 | 80 | 76 | 0.0 | 0.9 | 0.00 | 0.00 | 0.00 | 73 | 1015.7 |
| 20260901123853 | 79 | 76 | 0.0 | 0.0 | 0.00 | 0.00 | 0.00 | 74 | 1015.7 |
| 20260901123348 | 79 | 67 | 0.0 | 0.0 | 0.00 | 0.00 | 0.00 | 74 | 1015.5 |
| 20260901122846 | 79 | 75 | 0.0 | 0.0 | 0.00 | 0.00 | 0.00 | 74 | 1015.6 |
| 20260901122341 | 79 | 75 | 0.0 | 0.0 | 0.00 | 0.00 | 0.00 | 74 | 1015.3 |
| 20260901121840 | 79 | 75 | 0.0 | 0.0 | 0.00 | 0.00 | 0.00 | 74 | 1015.5 |
| 20260901121336 | 79 | 75 | 0.0 | 0.0 | 0.00 | 0.00 | 0.00 | 73 | 1015.3 |
| 20260901120830 | 79 | 75 | 0.0 | 0.0 | 0.00 | 0.00 | 0.00 | 73 | 1015.4 |
| 20260901120325 | 79 | 75 | 0.0 | 0.0 | 0.00 | 0.00 | 0.00 | 73 | 1015.2 |
| 20260901115821 | 79 | 76 | 0.0 | 0.0 | 0.00 | 0.00 | 0.00 | 73 | 1015.0 |
| 20260901115316 | 80 | 71 | 0.0 | 0.0 | 0.00 | 0.00 | 0.00 | 72 | 1015.1 |
| 20260901114814 | 80 | 72 | 0.0 | 0.0 | 0.00 | 0.00 | 0.00 | 71 | 1015.2 |
| 20260901114308 | 80 | 68 | 0.0 | 0.0 | 0.00 | 0.00 | 0.00 | 71 | 1015.2 |
| 20260901113806 | 80 | 75 | 0.0 | 0.0 | 0.00 | 0.00 | 0.00 | 71 | 1015.0 |
| 20260901113301 | 80 | 73 | 0.0 | 0.0 | 0.00 | 0.00 | 0.00 | 70 | 1015.0 |
| 20260901112756 | 81 | 72 | 0.0 | 0.0 | 0.00 | 0.00 | 0.00 | 70 | 1014.7 |
| 20260901112256 | 80 | 80 | 0.0 | 0.0 | 0.00 | 0.00 | 0.00 | 70 | 1014.9 |
| 20260901111751 | 81 | 73 | 0.0 | 0.0 | 0.00 | 0.00 | 0.00 | 70 | 1014.7 |
| 20260901111249 | 81 | 72 | 0.0 | 0.0 | 0.00 | 0.00 | 0.00 | 69 | 1014.8 |
| 20260901110749 | 81 | 70 | 0.0 | 0.9 | 0.00 | 0.00 | 0.00 | 69 | 1014.6 |
| 20260901110244 | 81 | 76 | 0.0 | 0.0 | 0.00 | 0.00 | 0.00 | 69 | 1014.7 |
| 20260901105741 | 82 | 73 | 0.0 | 0.0 | 0.00 | 0.00 | 0.00 | 68 | 1014.7 |
| 20260901105240 | 82 | 74 | 0.0 | 0.9 | 0.00 | 0.00 | 0.00 | 68 | 1014.9 |
| 20260901104736 | 82 | 80 | 0.0 | 0.9 | 0.00 | 0.00 | 0.00 | 68 | 1014.7 |
| 20260901104232 | 82 | 72 | 0.0 | 0.0 | 0.00 | 0.00 | 0.00 | 68 | 1014.8 |
| 20260901103731 | 82 | 74 | 0.0 | 0.0 | 0.00 | 0.00 | 0.00 | 67 | 1014.7 |
| 20260901103226 | 82 | 82 | 0.0 | 0.9 | 0.00 | 0.00 | 0.00 | 67 | 1015.0 |
| 20260901102721 | 82 | 75 | 0.0 | 0.0 | 0.00 | 0.00 | 0.00 | 67 | 1014.7 |
| 20260901102220 | 82 | 66 | 0.0 | 0.0 | 0.00 | 0.00 | 0.00 | 67 | 1014.9 |
| 20260901101716 | 82 | 75 | 0.0 | 0.0 | 0.00 | 0.00 | 0.00 | 68 | 1014.7 |
| 20260901101211 | 82 | 72 | 0.0 | 0.0 | 0.00 | 0.00 | 0.00 | 67 | 1014.7 |
| 20260901100711 | 82 | 81 | 0.0 | 1.7 | 0.00 | 0.00 | 0.00 | 67 | 1014.7 |
| 20260901100206 | 82 | 76 | 0.0 | 0.9 | 0.00 | 0.00 | 0.00 | 67 | 1014.8 |
| 20260901095704 | 82 | 76 | 0.0 | 0.9 | 0.00 | 0.00 | 0.00 | 67 | 1014.9 |
| 20260901095201 | 82 | 88 | 0.0 | 0.0 | 0.00 | 0.00 | 0.00 | 67 | 1014.6 |
| 20260901094656 | 82 | 77 | 0.0 | 0.9 | 0.00 | 0.00 | 0.00 | 67 | 1014.8 |
| 20260901094156 | 82 | 70 | 0.0 | 0.0 | 0.00 | 0.00 | 0.00 | 67 | 1014.8 |
| 20260901093651 | 82 | 77 | 0.0 | 0.0 | 0.00 | 0.00 | 0.00 | 67 | 1014.8 |
| 20260901093150 | 82 | 77 | 0.0 | 0.0 | 0.00 | 0.00 | 0.00 | 66 | 1015.0 |